Terminal Aerodrome Forecast
Issued by NWS Amarillo, TX

Home | Current Version | Previous Version | Text Only | Print | Product List | Glossary On
Versions: 1 2 3 4 5 6 7 8 9 10 11 12 13
000
FTUS44 KAMA 260500
TAFGUY
TAF
KGUY 260520Z 2606/2706 26009KT P6SM SKC
     FM261400 33013KT P6SM SKC
     FM262200 29008KT P6SM FEW200=

USA.gov is the U.S. government's official web portal to all federal, state and local government web resources and services.